RH
28 30 32 33 32 30 27 24 22 20 19 19 18 19 21 26 30 35 41 48 54 56 54 52 48 45 45 46 46 45 43 42 42 44 48 50 48 47 50 54 59 64 70 80 84 73 56 52 52 49 50 53
26 27 28 32 35 35 34 31 28 26 24 22 20 18 17 17 19 23 27 32 40 47 48 47 47 44 42 41 41 42 40 39 39 39 42 47 51 49 47 49 53 58 65 73 83 85 70 55 53 52 49 50
31 29 28 28 31 34 36 36 34 32 30 28 26 23 20 18 16 16 18 22 26 33 38 39 40 41 41 39 37 36 37 36 35 36 37 40 46 50 50 48 48 50 57 66 76 84 83 68 56 53 51 48
37 36 34 32 31 32 34 36 37 37 36 34 32 29 26 24 21 18 16 18 20 22 26 29 31 34 37 36 34 32 31 32 32 33 34 35 38 44 50 51 49 48 50 58 70 78 84 82 69 59 55 50
36 38 38 38 37 36 35 35 37 39 41 40 38 35 33 30 28 26 22 19 20 20 20 23 25 29 33 33 31 29 27 27 29 31 31 32 32 35 42 49 51 50 48 50 61 72 79 85 83 72 64 59
24 29 34 37 39 40 39 39 38 39 41 43 44 43 40 37 34 32 30 27 25 24 22 20 22 25 29 30 27 24 24 24 25 27 28 28 28 29 32 39 46 51 52 49 52 60 67 76 82 79 71 68
12 15 20 25 30 35 39 41 41 41 42 43 45 47 47 45 42 39 37 35 32 31 29 25 22 22 25 27 24 21 20 22 23 23 23 25 24 24 24 28 35 43 49 52 52 53 56 61 68 74 73 70
9 9 10 12 15 20 26 31 36 40 42 43 44 46 48 49 48 47 44 42 39 38 37 34 29 26 25 24 22 19 20 22 22 20 19 20 21 21 20 21 24 31 39 46 51 52 53 55 57 62 66 67
10 10 9 9 10 10 12 16 20 26 32 37 41 44 46 47 49 49 48 47 46 44 43 41 38 34 31 27 23 19 20 23 23 21 18 17 18 18 18 17 17 20 27 34 42 47 50 52 54 56 58 60
11 11 11 10 10 10 9 10 10 13 16 21 27 33 38 42 45 47 48 49 48 49 48 47 45 42 38 33 29 24 23 25 25 23 20 18 17 17 16 16 15 14 16 22 28 35 42 46 49 52 54 55
12 12 12 12 11 11 11 10 10 9 9 11 13 17 22 28 34 39 43 45 47 48 49 50 49 48 45 40 35 32 30 30 30 27 23 20 19 19 17 16 16 14 13 14 17 22 28 36 41 45 48 51
11 11 12 12 12 12 12 12 12 11 10 10 10 10 11 13 17 23 28 34 38 43 46 48 50 50 49 46 41 39 37 36 35 33 30 24 21 21 21 20 18 18 16 14 14 15 18 23 29 35 40 44
11 11 11 12 12 13 13 13 13 13 12 11 11 10 10 9 10 11 14 18 23 29 35 41 44 47 49 48 46 45 45 43 40 39 37 32 27 24 24 24 22 22 21 19 17 16 17 19 21 24 28 33
11 11 11 11 12 12 13 13 13 13 13 13 13 12 11 11 10 9 9 10 12 15 20 26 32 37 42 45 46 46 49 49 47 44 43 41 36 31 29 27 26 25 25 24 22 21 21 22 22 23 24 26
12 12 12 12 12 12 12 13 13 13 13 14 13 13 13 13 12 11 10 10 10 10 12 14 18 23 28 33 38 41 46 49 50 49 48 48 45 40 37 34 31 29 28 27 26 26 27 28 28 28 29 29
13 13 13 12 12 12 12 12 13 13 13 14 13 14 14 14 14 13 13 12 11 10 10 10 11 13 16 20 25 30 35 41 45 47 49 51 51 48 45 42 38 35 33 32 30 29 31 34 35 35 35 36
13 13 13 13 13 13 13 12 12 13 13 13 13 14 14 13 13 13 13 13 13 13 12 11 10 10 11 12 14 18 22 28 33 38 42 47 51 52 50 48 46 43 40 38 36 34 34 36 39 41 41 42
11 12 13 13 14 13 13 13 13 13 12 13 13 13 13 13 13 13 13 13 13 14 14 13 12 11 11 10 11 12 14 17 21 25 30 35 41 46 49 50 50 50 47 44 42 40 39 39 40 43 44 45
9 10 11 12 13 13 14 14 14 13 13 12 12 12 13 13 13 13 12 13 13 13 14 14 14 14 13 12 11 10 11 12 14 16 19 23 27 32 37 42 46 49 50 48 47 45 44 43 43 44 45 46
7 8 9 10 11 12 13 14 14 13 13 13 12 12 12 12 12 13 12 12 12 12 13 13 14 14 14 14 13 13 12 11 11 12 13 16 19 22 25 29 33 39 44 46 48 48 47 46 46 45 46 47
5 6 7 8 9 10 11 12 13 13 13 13 13 13 13 13 13 13 13 12 12 12 12 12 12 13 13 14 14 14 14 13 13 11 11 12 13 16 19 21 23 27 31 35 40 43 45 46 46 47 47 48
4 5 5 6 7 8 9 10 10 11 12 12 13 13 13 13 13 13 13 13 13 12 12 12 12 12 12 12 13 14 14 14 14 14 13 12 11 12 14 17 19 21 23 25 28 32 36 38 40 42 44 46
4 4 4 5 5 6 6 7 8 9 10 12 12 13 13 13 13 14 14 14 14 13 13 13 12 12 11 11 12 13 13 14 14 14 14 14 13 12 12 13 14 16 19 21 23 26 28 29 30 32 35 39
4 4 4 4 4 5 5 5 6 7 8 9 10 11 12 13 13 13 13 13 13 13 13 13 13 12 12 12 11 12 12 13 13 14 14 15 15 14 13 12 12 12 14 16 19 22 25 26 26 25 26 29
3 4 4 4 4 4 4 4 5 5 6 7 8 9 10 11 12 13 13 13 13 12 12 12 12 12 12 12 12 12 12 12 12 13 13 14 15 15 15 14 13 12 12 12 14 16 20 23 25 24 23 24
3 3 3 3 4 4 4 4 4 4 5 5 6 6 7 9 10 11 12 13 13 13 12 12 12 12 12 12 12 12 12 12 12 13 13 14 14 15 15 15 15 14 13 12 12 12 14 17 21 23 24 24
3 3 3 3 3 4 4 3 3 3 4 4 4 5 5 6 7 8 10 11 12 13 13 14 13 13 13 13 13 12 12 12 12 13 13 13 14 14 15 15 16 16 15 15 13 12 12 13 15 18 20 22
3 3 3 3 3 3 3 3 4 4 4 4 3 4 4 4 5 6 7 8 9 11 12 13 14 14 14 15 14 14 13 13 13 13 13 14 14 14 15 15 16 16 16 16 16 15 14 13 13 14 16 17
3 4 4 4 3 3 3 3 3 3 4 4 4 4 3 3 4 4 4 5 6 7 9 10 12 13 14 15 15 15 14 14 14 14 14 15 15 15 15 16 16 16 16 17 17 17 17 16 15 13 13 14
4 4 4 4 3 3 4 3 3 3 3 3 3 3 4 3 3 3 3 3 4 5 5 7 8 9 10 11 13 14 14 14 14 14 14 15 15 16 16 16 17 17 17 17 17 17 18 18 18 17 15 13
3 4 4 4 4 4 4 3 4 4 3 3 3 3 3 3 3 3 3 3 3 3 4 4 5 6 6 7 9 10 11 12 13 14 14 14 15 15 16 16 17 18 18 18 17 17 18 18 19 19 18 17
Wind_Speed
125 124 123 122 121 121 121 120 119 118 117 117 117 116 115 114 114 113 112 111 111 110 110 109 108 106 104 104 103 102 100 98 96 95 93 92 93 95 96 97 98 98 97 97 97 96 95 93 91 90 88 87
129 129 128 127 125 124 124 123 122 121 120 120 120 119 119 118 116 115 115 114 113 113 112 111 110 109 108 107 106 105 104 101 99 98 96 95 95 96 98 99 100 101 100 99 98 99 99 98 96 94 92 91
133 132 132 131 130 129 128 127 126 125 124 123 122 122 121 121 120 119 118 117 116 115 115 114 113 112 111 110 109 108 107 105 103 101 100 99 98 98 99 101 102 103 103 101 100 100 101 101 100 98 96 95
135 135 135 134 134 133 132 131 130 129 128 126 126 125 124 124 123 122 121 120 119 118 118 117 116 114 114 113 112 111 110 108 106 105 103 103 102 101 101 102 103 105 105 104 102 102 102 103 103 102 100 99
136 136 137 137 137 136 136 135 134 133 132 130 129 128 128 127 126 126 125 124 122 122 121 120 118 117 117 116 115 114 113 111 109 108 107 106 106 105 104 104 105 106 107 107 106 105 105 105 105 104 103 102
134 136 137 138 138 138 138 138 137 136 136 134 133 132 131 131 130 129 128 127 126 125 125 123 122 121 120 120 119 118 116 114 113 112 111 110 109 108 107 107 107 107 108 109 108 109 109 108 107 106 106 105
131 133 135 136 137 138 139 139 139 139 139 138 137 136 135 134 134 133 132 131 130 129 128 127 126 125 124 123 123 121 118 117 116 116 115 113 112 111 110 110 110 109 110 110 110 111 112 111 110 109 108 107
128 129 131 133 135 136 138 139 140 140 140 140 140 139 139 138 137 136 136 134 133 132 131 130 130 128 127 127 127 124 122 120 120 119 118 116 116 114 113 113 112 111 111 112 112 112 113 113 112 112 111 110
126 127 128 129 131 133 135 137 138 139 140 141 141 141 141 140 140 140 139 138 137 136 135 134 133 132 131 131 130 128 125 124 123 123 121 120 119 117 116 116 114 113 113 114 114 114 114 114 114 114 114 113
125 126 127 128 129 130 132 133 135 137 138 139 141 141 142 142 142 142 141 141 140 139 138 137 136 136 135 135 133 131 129 127 127 126 125 123 122 121 119 118 117 116 115 115 116 116 115 116 116 116 116 116
123 125 126 127 128 129 129 130 132 133 135 136 138 140 141 142 142 143 143 143 143 142 141 140 140 139 139 139 137 134 132 131 131 130 129 128 126 124 123 121 120 119 118 117 117 116 116 117 118 118 118 117
123 123 124 126 127 128 129 130 130 131 132 133 135 136 138 140 141 142 143 144 144 144 143 143 143 142 142 142 140 138 136 135 134 133 133 132 130 128 127 125 124 122 121 120 119 118 117 117 118 119 119 119
125 124 125 125 126 127 128 129 130 131 131 132 132 133 135 137 138 139 140 142 143 144 145 145 145 145 144 144 143 141 140 139 138 136 136 136 135 133 131 129 128 126 125 124 122 120 119 119 119 119 119 120
128 127 127 127 127 127 128 129 130 131 131 132 132 132 133 134 135 136 137 139 141 142 144 145 145 146 146 146 145 144 142 142 141 140 139 138 138 137 135 134 132 130 129 128 126 124 123 122 121 120 120 120
130 130 130 130 129 129 130 130 130 131 132 132 132 132 133 133 134 134 135 136 138 140 142 143 144 145 146 147 147 146 145 144 143 142 142 141 141 140 139 138 137 135 133 132 130 128 127 126 125 124 123 122
131 132 132 132 132 132 132 132 132 132 133 133 133 133 134 134 134 134 134 134 136 137 139 141 142 144 145 146 146 146 146 146 145 145 144 143 143 143 142 142 141 140 138 136 135 133 131 130 129 128 127 125
130 131 133 133 134 134 134 134 134 134 134 134 134 135 135 135 135 134 134 134 135 136 137 138 140 141 143 144 145 146 146 146 146 146 145 145 145 145 144 144 143 143 142 140 139 137 135 134 132 132 131 129
126 129 131 133 134 135 135 136 136 136 136 136 136 136 136 136 136 135 135 135 135 135 136 137 138 139 140 142 143 144 145 145 145 145 146 146 146 146 146 145 145 145 145 144 142 141 139 138 136 135 134 133
121 124 127 130 132 134 135 136 137 137 137 137 137 137 137 137 137 137 136 136 136 136 136 137 137 138 139 140 141 142 143 144 144 145 145 145 146 146 146 146 146 146 146 146 145 144 142 141 140 139 137 136
116 119 122 125 128 131 133 135 136 137 137 137 137 137 137 137 138 138 138 137 137 137 137 137 137 138 138 139 140 140 141 142 143 144 144 144 145 145 146 146 146 146 146 146 146 146 145 144 143 142 140 139
110 113 116 120 123 126 129 131 134 135 136 136 137 137 137 138 138 139 139 139 139 138 138 138 138 138 138 139 139 140 140 141 141 142 143 143 144 144 145 145 145 145 145 146 146 146 146 146 145 144 143 142
103 106 110 113 116 120 123 126 129 131 133 134 136 136 137 137 138 139 140 140 140 140 140 139 139 139 138 139 139 140 140 141 141 141 142 142 142 143 144 145 145 144 145 145 145 145 146 146 146 145 145 144
96 99 102 106 109 113 116 120 123 125 128 131 133 134 135 136 137 138 139 140 141 141 141 141 141 140 139 139 139 139 140 141 141 141 141 141 141 142 142 143 144 144 144 144 144 144 144 145 146 145 145 145
91 94 97 100 103 106 110 113 116 119 122 125 128 129 131 133 135 136 137 138 139 139 140 140 141 141 140 140 140 140 140 141 141 141 141 141 141 141 142 142 143 143 144 144 144 144 144 144 145 145 144 144
87 90 92 95 98 101 104 107 109 112 116 119 122 124 126 128 130 132 134 135 136 136 136 137 138 139 140 140 141 141 141 141 141 141 141 141 142 142 142 141 142 142 143 143 143 144 144 144 144 145 144 143
82 85 88 91 93 96 99 101 103 106 109 112 115 117 120 122 125 128 130 132 133 134 134 134 135 136 137 138 140 140 141 141 141 141 141 141 142 142 142 142 142 142 142 142 142 143 143 144 144 145 145 143
77 80 83 87 90 93 95 96 98 100 103 106 108 111 113 115 118 121 124 127 129 131 132 133 133 134 135 136 137 138 139 140 141 141 141 141 141 141 142 142 142 142 141 141 141 141 142 142 143 144 145 145
73 75 79 83 86 89 91 93 95 97 99 101 103 105 108 110 112 115 118 121 123 126 129 131 132 133 134 135 136 136 137 137 139 139 140 141 141 141 141 141 142 142 142 141 141 140 140 141 142 143 144 145
69 72 76 79 81 83 86 88 91 94 96 99 101 102 105 107 108 111 113 116 119 121 124 127 129 131 133 134 135 136 136 135 136 137 138 139 140 141 141 141 141 141 142 142 141 140 140 140 140 141 143 144
64 68 72 75 77 79 82 84 87 90 93 95 98 100 102 104 105 106 108 111 114 117 120 123 126 128 129 131 133 134 135 135 135 135 135 136 138 139 139 140 140 140 141 141 141 141 141 140 140 140 141 142
58 62 66 70 73 76 78 81 83 86 89 92 95 96 98 100 101 102 104 106 109 112 115 118 121 124 126 127 129 130 132 133 133 134 135 135 135 136 137 138 139 139 140 140 140 141 141 141 141 140 140 141
Wind_Direction
257 257 257 257 257 257 257 257 257 257 257 256 256 256 255 254 253 253 252 251 251 251 251 251 251 250 249 249 248 248 246 244 242 240 238 238 237 236 235 234 235 236 237 239 241 241 239 236 235 233 233 233
256 256 256 256 255 255 256 256 256 256 256 256 256 256 256 255 254 253 253 252 251 250 251 251 250 250 250 249 248 248 247 246 244 241 239 238 238 237 236 235 234 234 235 237 239 241 241 239 237 235 234 234
255 255 255 254 254 254 254 254 254 254 254 254 254 255 255 255 255 254 253 253 252 251 250 250 250 250 250 249 248 248 247 246 245 243 241 239 238 237 237 236 235 234 234 235 237 239 241 240 239 237 236 235
254 254 253 253 253 253 253 253 253 253 253 253 253 253 254 254 254 254 254 253 253 252 251 251 250 249 249 249 249 248 247 247 246 245 243 241 239 237 236 237 236 236 235 234 235 236 238 240 240 239 238 237
254 253 253 253 252 252 252 252 252 252 252 252 252 252 252 252 252 253 253 253 253 253 252 252 251 250 249 249 248 248 247 247 246 245 244 243 241 239 237 236 236 236 236 235 234 235 237 239 240 240 239 239
253 253 253 252 252 252 251 251 251 251 251 251 251 251 251 251 251 251 252 252 252 252 252 252 251 251 250 249 249 248 247 247 246 245 245 243 242 241 239 237 236 235 236 236 235 236 237 238 240 240 240 240
253 253 252 252 252 252 251 251 250 250 250 250 250 250 250 250 250 251 250 251 251 251 251 251 251 251 250 250 249 249 248 247 247 246 245 244 243 242 241 239 237 235 235 236 236 237 237 238 240 241 241 240
253 253 252 252 252 251 251 251 250 250 250 249 249 249 249 249 249 250 250 250 250 250 249 250 250 250 250 250 250 250 249 248 247 247 246 245 244 243 242 241 239 237 236 236 236 236 237 238 240 241 242 241
253 253 252 252 251 251 251 251 250 250 249 249 249 248 248 248 248 248 249 249 249 249 249 248 249 249 249 249 250 250 249 249 248 247 247 246 245 244 243 242 241 239 238 237 236 236 236 238 239 240 242 243
252 252 252 252 251 251 251 250 250 250 249 249 249 248 248 248 247 247 248 248 248 248 248 248 248 248 248 248 248 249 249 249 249 248 248 247 246 245 244 244 243 241 240 239 237 236 236 237 238 239 240 242
251 251 251 251 251 251 250 250 250 250 249 249 248 248 248 248 247 247 247 247 247 247 247 247 247 247 247 248 248 248 248 247 248 248 248 248 247 246 245 245 244 243 241 240 239 238 237 237 237 238 239 241
252 251 250 250 250 250 250 250 250 250 249 249 248 248 248 248 247 247 247 247 247 247 246 246 246 246 246 247 247 247 247 246 246 247 248 248 248 247 246 246 245 244 243 242 241 240 239 239 238 238 239 240
253 252 251 250 249 249 249 249 249 249 249 249 249 248 248 248 247 247 246 246 246 246 246 246 246 246 246 246 246 246 246 246 246 246 246 247 248 248 247 246 245 245 244 244 242 241 241 240 240 240 239 240
253 252 252 251 250 249 249 249 248 248 249 249 249 248 248 248 247 247 246 246 246 246 246 246 246 246 246 246 246 246 245 245 245 245 245 246 247 247 247 247 246 245 245 245 244 243 242 242 241 241 240 240
253 252 252 251 251 250 249 248 248 248 248 248 248 248 248 248 248 247 247 246 246 246 245 245 245 245 245 245 245 245 245 244 245 245 245 245 245 246 247 247 247 246 245 245 245 244 243 243 242 242 241 241
252 252 252 251 251 250 250 249 248 248 247 247 247 247 247 247 247 247 247 246 246 246 245 245 245 245 245 245 245 245 245 244 244 244 244 244 244 245 245 246 246 246 246 245 245 244 244 244 243 243 242 242
251 251 251 251 251 250 250 249 249 248 248 247 247 247 247 247 247 247 246 246 246 246 246 245 245 245 245 245 245 244 244 244 244 244 244 244 244 244 245 245 245 246 246 246 245 244 244 243 243 243 243 243
251 251 250 250 250 250 250 250 249 249 248 248 247 247 247 247 247 246 246 246 246 246 246 245 245 245 245 245 245 245 244 244 244 243 243 243 243 243 244 244 244 245 246 246 246 245 244 244 243 243 243 243
251 251 250 250 250 250 250 250 250 249 249 248 248 247 247 247 246 246 246 246 245 245 245 245 245 245 245 245 245 245 244 244 244 243 243 243 243 243 243 243 244 244 245 245 245 245 245 244 244 243 243 243
251 250 250 250 250 250 250 250 250 250 249 249 249 248 248 247 247 247 246 246 246 245 245 245 245 245 245 245 245 245 244 244 244 243 243 242 242 243 243 243 243 243 244 244 245 245 245 245 244 244 243 243
252 251 250 250 250 250 250 250 250 250 250 250 249 249 248 248 247 247 247 246 246 246 245 245 244 244 244 244 244 244 244 244 244 244 243 242 242 242 242 242 242 242 243 243 244 244 245 245 245 244 244 243
254 253 252 251 250 250 250 250 250 250 250 250 250 249 249 248 248 247 247 247 246 246 246 245 245 244 244 244 244 244 244 244 244 244 243 243 242 242 242 242 242 242 242 242 242 243 244 244 244 244 244 244
256 255 254 253 252 251 251 251 250 250 250 250 250 250 250 249 249 248 248 247 247 246 246 246 245 245 245 244 244 244 244 244 244 244 243 243 243 242 242 242 242 241 241 241 241 242 243 243 244 244 244 244
254 253 253 253 252 252 251 251 251 250 250 250 250 250 250 250 249 249 249 249 248 247 247 246 246 246 245 245 245 244 244 244 244 244 244 243 243 243 242 242 241 241 241 241 241 241 241 242 243 243 243 243
254 253 253 252 251 251 250 250 250 250 250 250 250 250 250 250 250 250 250 250 249 249 248 248 247 246 246 246 245 245 244 244 244 244 244 243 243 243 243 242 242 242 241 241 241 241 241 241 242 243 243 243
256 255 255 254 253 253 251 250 249 249 249 249 249 249 249 249 249 249 250 250 250 250 250 249 248 248 247 247 246 246 245 245 245 244 244 243 243 243 243 243 243 242 242 241 241 240 240 241 241 242 242 242
258 257 256 255 254 254 253 253 252 251 249 248 248 247 248 248 248 249 249 249 250 250 250 250 250 249 248 248 247 246 246 245 245 245 244 244 244 243 243 243 243 243 243 242 242 241 240 240 240 241 242 242
260 259 257 256 254 253 253 253 253 253 252 251 249 248 246 246 245 246 246 247 248 248 249 249 249 249 249 248 248 247 246 246 246 245 245 245 244 244 243 243 242 242 242 242 242 242 241 241 240 240 241 242
261 259 258 257 256 255 254 253 252 251 251 251 251 250 248 247 245 244 243 243 244 245 246 246 247 248 248 248 248 248 247 246 246 245 245 245 245 244 244 243 243 242 242 242 242 242 242 241 241 240 241 241
261 260 258 257 257 256 255 254 253 252 251 250 250 249 249 249 249 248 246 244 243 242 242 243 244 245 245 246 246 247 247 246 246 246 245 245 244 244 244 244 243 243 242 242 242 241 241 241 241 241 241 241
263 260 259 257 257 256 255 254 253 252 252 251 251 250 249 249 249 249 248 247 246 244 243 242 242 242 243 243 244 245 245 246 246 246 245 245 244 244 244 244 243 243 243 242 242 241 241 241 241 241 240 241